Find Kosmos-894

NORAD ID: 9846 Int'l Des: 1977-013 Owner: VMF Country: SU operational
LEOCIRCULARPOLAR

リアルタイム位置

3D地球を読み込み中...

Kosmos-894について

説明を読み込み中...

次回通過

Passes for default location (London). Set your location on the main map for personalized predictions.

高度履歴

Loading altitude history...

軌道要素

1 09846U 77013A 26107.17304240 .00000073 00000-0 61566-4 0 9990
2 09846 82.9421 142.3158 0030336 21.7639 40.9541 13.74203722463795
Epoch: Apr 17, 2026 • Age: 10 hours

現在のステータス

高度 988.0 km
速度 7.36 km/s
衛星直下点 -38.88°S, 78.4°E
タイプ other

Most Searched